Location: Beetenbrück
(52.8113°N, 9.5946°E)
Time: 17:28:58
(UTC+00:00)

Cosmos 1908 Rocket - Pass Details

Date: 14 April 2026
Orbit: 598 x 625 km, 82.5° (Epoch: 9 May)

Event Time Altitude Azimuth Distance (km) Brightness Sun altitude
Exits shadow 20:28:53 33° 109° (ESE) 1,033 4.2 -17.5°
Maximum altitude 20:29:29 35° 91° (E) 1,001 4.2 -17.6°
Drops below altitude 10° 20:33:25 10° 26° (NNE) 1,965 6.4 -18.0°
Sets 20:35:46 0° 18° (NNE) 2,870 7.4 -18.2°
